x

Gulf Of Maine - 78 Nm East Of Portsmouth, Nh (44005) Wave Buoy

11:50 - Wed 29th Jun 2016 All times are EDT. -4 hours from GMT.

  • Sig Wave height 3.6ft
  • Swell Direction
  • Peak Period 8s
  • Average Period 5s
  • Wind
    9mph, 11mph gusts
  • Sea Temp 62°f
  • Aire Temp 63°f
  • Sea Pressure 1011.6mb
  • Gulf Of Maine - 78 Nm East Of Portsmouth, Nh
  • Gulf Of Maine - 78 Nm East Of Portsmouth, Nh

More Historic Weather Station data

Upgrade to MSW Pro to gain access to the past 30 days of data for over 8000 Wavebouys and Weather Stations around the globe.

Join Pro

Comparision Forecast

View Surf forecast
   
mié 06/29 11:50 3.5ft 8s 5s 9 11 mph 1011.6mb 62f 63f
10:50 3.5ft 8s 5s 9 11 mph 1011.6mb 62f 63f
9:50 2.5ft 8s 5s 9 11 mph 1011.6mb 62f 63f
8:50 2.5ft 8s 5s 11 13 mph 1011mb 62f 63f
7:50 2.5ft 8s 5s 9 11 mph 1011mb 62f 64f
6:50 3ft 8s 5s 7 9 mph 1011.2mb 62f 63f
5:50 3.5ft 7s 5s 9 11 mph 1011mb 62f 63f
4:50 3.5ft 7s 6s 11 16 mph 1011.5mb 62f 63f
3:50 3.5ft 7s 5s 9 11 mph 1011.5mb 62f 63f
2:50 3.5ft 7s 6s 7 9 mph 1011.3mb 62f 63f
1:50 3ft 7s 5s 11 13 mph 1011.9mb 61f 63f
12:50 3ft 8s 5s 11
mph
1012.1mb 61f 63f
11:50 2.5ft 8s 5s 9 11 mph 1012.4mb 61f 63f
10:50 2.5ft 8s 4s 11 13 mph 1012.6mb 60f 62f
9:50 2.5ft 8s 5s 16 18 mph 1012.4mb 60f 62f
8:50 2.5ft 8s 5s 11 13 mph 1012.8mb 60f 62f
7:50 2.5ft 9s 5s 9 11 mph 1012.7mb 60f 62f
6:50 2.5ft 8s 4s 11 13 mph 1012.8mb 60f 62f
5:50 2.5ft 8s 4s 11 13 mph 1013mb 60f 62f
3:50 2.5ft 8s 5s 13
mph
1013mb 60f 61f
2:50 2.5ft 7s 5s 7 9 mph 1013.2mb 60f 61f
1:50 2.5ft 8s 5s 9 11 mph 1013.5mb 60f 61f
12:50 2.5ft 7s 5s 9
mph
1013.9mb 60f 61f
mar 06/28 11:50 2.5ft 7s 5s 11
mph
1014.3mb 60f 62f
10:50 2ft 8s 5s 13 16 mph 1014.2mb 60f 62f
9:50 2ft 8s 5s 9 11 mph 1015mb 60f 62f
8:50 2.5ft 8s 4s 11 13 mph 1014.7mb 60f 61f
7:50 2ft 8s 4s 13
mph
1014.8mb 60f 62f
6:50 2ft 4s 4s 11 13 mph 1014.7mb 60f 62f
5:50 2.5ft 4s 4s 13 16 mph 1014.5mb 60f 61f
4:50 2.5ft 8s 4s 16 18 mph 1014.5mb 60f 62f
3:50 2.5ft 8s 4s 13 16 mph 1015.4mb 60f 62f
2:50 3ft 8s 5s 13 16 mph 1015.7mb 60f 62f
1:50 3ft 8s 5s 9 11 mph 1016.1mb 60f 62f
12:50 3ft 4s 4s 11 16 mph 1016.6mb 61f 62f
11:50 3ft 4s 4s 13 16 mph 1016.9mb 60f 62f
10:50 3ft 4s 4s 13 16 mph 1016.9mb 60f 63f
9:50 3.5ft 5s 4s 16
mph
1017mb 60f 63f
8:50 3.5ft 5s 4s 16 18 mph 1017mb 60f 63f
7:50 3.5ft 5s 4s 16 18 mph 1016.8mb 60f 62f
6:50 3.5ft 5s 4s 16 18 mph 1016.4mb 60f 62f
5:50 3.5ft 5s 4s 16 20 mph 1016mb 60f 63f
4:50 3.5ft 5s 4s 20 22 mph 1015.7mb 60f 63f
3:50 4ft 5s 4s 18 22 mph 1015.5mb 60f 63f
2:50 4ft 5s 4s 18 20 mph 1016mb 60f 63f
1:50 4.5ft 5s 5s 20 22 mph 1016.2mb 60f 63f
12:50 4.5ft 6s 5s 20 22 mph 1016.4mb 60f 63f
lun 06/27 11:50 4.5ft 5s 5s 20 22 mph 1016.6mb 60f 64f
10:50 5ft 6s 5s 20 25 mph 1016.7mb 60f 63f
9:50 5ft 6s 5s 20 25 mph 1016.7mb 60f 63f
8:50 5ft 5s 5s 25 27 mph 1016.2mb 60f 63f
7:50 5ft 6s 5s 22 27 mph 1016.1mb 60f 63f
6:50 5ft 5s 5s 25 27 mph 1015.8mb 60f 63f
5:50 4.5ft 5s 5s 22 27 mph 1016mb 61f 63f
4:50 4.5ft 5s 4s 20 25 mph 1016.6mb 61f 64f
3:50 4ft 5s 4s 22 25 mph 1016.7mb 61f 64f
2:50 4.5ft 5s 5s 20 22 mph 1016.8mb 61f 64f
1:50 4.5ft 7s 5s 18 20 mph 1017.4mb 61f 64f
12:50 4.5ft 5s 5s 18 20 mph 1017.9mb 61f 63f
11:50 4.5ft 5s 5s 20 22 mph 1018.3mb 61f 63f
10:50 4.5ft 5s 5s 18 22 mph 1018.4mb 60f 63f
9:50 4.5ft 5s 5s 20 22 mph 1018.5mb 60f 63f
8:50 4ft 5s 5s 20 22 mph 1018.8mb 60f 63f
7:50 4ft 5s 5s 18 20 mph 1018.7mb 61f 63f
6:50 4ft 8s 5s 16 18 mph 1019.1mb 61f 63f
5:50 3.5ft 4s 4s 18 22 mph 1018.9mb 61f 63f
4:50 3.5ft 8s 5s 18 20 mph 1018.6mb 61f 63f
3:50 3.5ft 9s 5s 18 20 mph 1018.5mb 61f 62f
2:50 3.5ft 8s 5s 18 20 mph 1018.6mb 62f 62f
1:50 3ft 8s 5s 16 18 mph 1019mb 61f 62f
12:50 2.5ft 8s 5s 13 16 mph 1019.4mb 61f 63f
dom 06/26 11:50 2.5ft 8s 5s 13 16 mph 1019.8mb 60f 62f
10:50 2.5ft 8s 5s 13
mph
1020.1mb 61f 62f
9:50 2.5ft 8s 5s 13 16 mph 1020.5mb 62f 62f
8:50 2.5ft 8s 5s 11 13 mph 1020.7mb 62f 63f
7:50 2ft 8s 5s 11
mph
1020.9mb 63f 63f
6:50 1.6ft 8s 5s 11 13 mph 1021.1mb 63f 63f
5:50 1.6ft 8s 5s 9
mph
1021.6mb 63f 63f
4:50 1.6ft 9s 5s 9
mph
1022mb 63f 63f
3:50 2ft 8s 5s 11
mph
1022.5mb 62f 63f
2:50 2ft 7s 5s 11
mph
1022.9mb 62f 63f
1:50 2ft 8s 6s 11
mph
1023.4mb 62f 62f
12:50 2ft 8s 7s 9 11 mph 1023.9mb 62f 63f
11:50 2ft 8s 7s 7 9 mph 1024mb 62f 62f
10:50 2ft 7s 7s 7 9 mph 1023.6mb 61f 62f
9:50 2ft 7s 7s 9 11 mph 1023.7mb 61f 62f
8:50 2ft 8s 7s 9
mph
1024.1mb 61f 62f
7:50 2ft 8s 7s 4 7 mph 1023.9mb 61f 62f
6:50 1.6ft 8s 6s 4 7 mph 1023.5mb 61f 61f
5:50 1.3ft 8s 6s 2
mph
1023.7mb 61f 62f